Time,TemperatureF,DewpointF,PressureIn,WindDirection,WindDirectionDegrees,WindSpeedMPH,WindSpeedGustMPH,Humidity,HourlyPrecipIn,Conditions,Clouds,dailyrainin,SoftwareType,DateUTC
2013-04-10 00:13:00,60.7,60.0,30.18,WSW,240,8.0,-999.0,96,-99.99,,,0.00,weatherlink.com 1.10,2013-04-10 04:13:00,
2013-04-10 00:28:00,60.6,60.0,30.18,WSW,246,7.0,-999.0,96,-99.99,,,0.00,weatherlink.com 1.10,2013-04-10 04:28:00,
2013-04-10 00:43:00,60.5,59.0,30.18,WSW,240,7.0,-999.0,96,-99.99,,,0.00,weatherlink.com 1.10,2013-04-10 04:43:00,
2013-04-10 00:58:00,60.4,59.0,30.17,WSW,242,5.0,-999.0,96,-99.99,,,0.00,weatherlink.com 1.10,2013-04-10 04:58:00,
2013-04-10 01:13:00,60.2,59.0,30.17,SW,232,5.0,-999.0,96,-99.99,,,0.00,weatherlink.com 1.10,2013-04-10 05:13:00,
2013-04-10 01:28:00,60.2,59.0,30.17,WSW,244,7.0,-999.0,97,-99.99,,,0.00,weatherlink.com 1.10,2013-04-10 05:28:00,
2013-04-10 01:43:00,60.6,60.0,30.16,SW,231,5.0,-999.0,97,-99.99,,,0.00,weatherlink.com 1.10,2013-04-10 05:43:00,
2013-04-10 01:58:00,60.1,59.0,30.16,SW,234,6.0,-999.0,96,-99.99,,,0.00,weatherlink.com 1.10,2013-04-10 05:58:00,
2013-04-10 02:13:00,60.2,59.0,30.16,SW,232,8.0,-999.0,97,-99.99,,,0.00,weatherlink.com 1.10,2013-04-10 06:13:00,
2013-04-10 02:28:00,59.9,59.0,30.15,WSW,240,5.0,-999.0,97,-99.99,,,0.00,weatherlink.com 1.10,2013-04-10 06:28:00,
2013-04-10 02:43:00,59.9,59.0,30.14,SW,236,5.0,-999.0,97,-99.99,,,0.00,weatherlink.com 1.10,2013-04-10 06:43:00,
2013-04-10 02:58:00,60.0,59.0,30.14,WSW,238,7.0,-999.0,97,-99.99,,,0.00,weatherlink.com 1.10,2013-04-10 06:58:00,
2013-04-10 03:13:00,59.8,59.0,30.14,WSW,238,7.0,-999.0,97,-99.99,,,0.00,weatherlink.com 1.10,2013-04-10 07:13:00,
2013-04-10 03:28:00,59.6,59.0,30.13,WSW,243,5.0,-999.0,97,-99.99,,,0.00,weatherlink.com 1.10,2013-04-10 07:28:00,
2013-04-10 03:43:00,59.5,59.0,30.13,WSW,240,6.0,-999.0,97,-99.99,,,0.00,weatherlink.com 1.10,2013-04-10 07:43:00,
2013-04-10 03:58:00,59.4,59.0,30.13,SW,234,6.0,-999.0,97,-99.99,,,0.00,weatherlink.com 1.10,2013-04-10 07:58:00,
2013-04-10 04:14:00,59.4,59.0,30.13,SW,224,5.0,-999.0,97,-99.99,,,0.00,weatherlink.com 1.10,2013-04-10 08:14:00,
2013-04-10 04:29:00,59.5,59.0,30.14,SW,230,6.0,-999.0,97,-99.99,,,0.00,weatherlink.com 1.10,2013-04-10 08:29:00,
2013-04-10 04:44:00,59.4,59.0,30.14,SW,229,6.0,-999.0,97,-99.99,,,0.00,weatherlink.com 1.10,2013-04-10 08:44:00,
2013-04-10 04:59:00,59.8,59.0,30.14,WSW,243,7.0,-999.0,97,-99.99,,,0.00,weatherlink.com 1.10,2013-04-10 08:59:00,
2013-04-10 05:14:00,59.6,59.0,30.15,SW,233,6.0,-999.0,97,-99.99,,,0.00,weatherlink.com 1.10,2013-04-10 09:14:00,
2013-04-10 05:29:00,59.7,59.0,30.15,WSW,246,7.0,-999.0,97,-99.99,,,0.00,weatherlink.com 1.10,2013-04-10 09:29:00,
2013-04-10 05:44:00,59.8,59.0,30.15,WSW,248,6.0,-999.0,97,-99.99,,,0.00,weatherlink.com 1.10,2013-04-10 09:44:00,
2013-04-10 05:59:00,59.8,59.0,30.15,WNW,284,4.0,-999.0,97,-99.99,,,0.00,weatherlink.com 1.10,2013-04-10 09:59:00,
2013-04-10 06:14:00,60.2,60.0,30.16,SW,234,8.0,-999.0,98,-99.99,,,0.00,weatherlink.com 1.10,2013-04-10 10:14:00,
2013-04-10 06:29:00,59.8,59.0,30.16,WSW,247,8.0,-999.0,97,-99.99,,,0.00,weatherlink.com 1.10,2013-04-10 10:29:00,
2013-04-10 06:44:00,59.4,59.0,30.16,SW,228,7.0,-999.0,97,-99.99,,,0.00,weatherlink.com 1.10,2013-04-10 10:44:00,
2013-04-10 06:59:00,59.3,59.0,30.17,WSW,241,7.0,-999.0,97,-99.99,,,0.00,weatherlink.com 1.10,2013-04-10 10:59:00,
2013-04-10 07:14:00,58.9,58.0,30.17,WSW,238,6.0,-999.0,97,-99.99,,,0.00,weatherlink.com 1.10,2013-04-10 11:14:00,
2013-04-10 07:29:00,58.9,58.0,30.17,WSW,243,6.0,-999.0,98,-99.99,,,0.00,weatherlink.com 1.10,2013-04-10 11:29:00,
2013-04-10 07:44:00,58.8,58.0,30.18,SW,232,4.0,-999.0,98,-99.99,,,0.00,weatherlink.com 1.10,2013-04-10 11:44:00,
2013-04-10 07:59:00,59.1,59.0,30.18,WSW,237,6.0,-999.0,98,-99.99,,,0.00,weatherlink.com 1.10,2013-04-10 11:59:00,
2013-04-10 08:14:00,59.4,59.0,30.18,WSW,242,6.0,-999.0,98,-99.99,,,0.00,weatherlink.com 1.10,2013-04-10 12:14:00,
2013-04-10 08:29:00,59.8,59.0,30.18,WSW,246,7.0,-999.0,98,-99.99,,,0.00,weatherlink.com 1.10,2013-04-10 12:29:00,
2013-04-10 08:44:00,60.1,60.0,30.19,West,281,3.0,-999.0,98,-99.99,,,0.00,weatherlink.com 1.10,2013-04-10 12:44:00,
2013-04-10 08:59:00,60.2,60.0,30.19,WSW,239,7.0,-999.0,98,-99.99,,,0.00,weatherlink.com 1.10,2013-04-10 12:59:00,
2013-04-10 09:14:00,60.3,60.0,30.19,WSW,237,5.0,-999.0,98,-99.99,,,0.00,weatherlink.com 1.10,2013-04-10 13:14:00,
2013-04-10 09:29:00,60.8,60.0,30.19,WSW,240,4.0,-999.0,98,-99.99,,,0.00,weatherlink.com 1.10,2013-04-10 13:29:00,
2013-04-10 09:44:00,61.0,61.0,30.19,SW,228,3.0,-999.0,98,-99.99,,,0.00,weatherlink.com 1.10,2013-04-10 13:44:00,
2013-04-10 09:59:00,61.4,61.0,30.20,SW,223,4.0,-999.0,98,-99.99,,,0.00,weatherlink.com 1.10,2013-04-10 13:59:00,
2013-04-10 10:14:00,61.9,61.0,30.19,SW,230,4.0,-999.0,98,-99.99,,,0.00,weatherlink.com 1.10,2013-04-10 14:14:00,
2013-04-10 10:29:00,62.0,61.0,30.19,SSW,213,6.0,-999.0,97,-99.99,,,0.00,weatherlink.com 1.10,2013-04-10 14:29:00,
2013-04-10 10:44:00,62.2,61.0,30.19,WSW,242,5.0,-999.0,97,-99.99,,,0.00,weatherlink.com 1.10,2013-04-10 14:44:00,
2013-04-10 10:59:00,62.3,61.0,30.19,SW,219,9.0,-999.0,96,-99.99,,,0.00,weatherlink.com 1.10,2013-04-10 14:59:00,
2013-04-10 11:14:00,62.7,62.0,30.19,SW,215,9.0,-999.0,96,-99.99,,,0.00,weatherlink.com 1.10,2013-04-10 15:14:00,
2013-04-10 11:29:00,62.4,61.0,30.19,SW,215,10.0,-999.0,95,-99.99,,,0.00,weatherlink.com 1.10,2013-04-10 15:29:00,
2013-04-10 11:44:00,62.9,62.0,30.18,SSW,211,10.0,-999.0,95,-99.99,,,0.00,weatherlink.com 1.10,2013-04-10 15:44:00,
2013-04-10 11:59:00,62.5,61.0,30.18,SSW,213,9.0,-999.0,95,-99.99,,,0.00,weatherlink.com 1.10,2013-04-10 15:59:00,
2013-04-10 12:14:00,63.2,62.0,30.18,SW,216,11.0,-999.0,95,-99.99,,,0.00,weatherlink.com 1.10,2013-04-10 16:14:00,
2013-04-10 12:29:00,64.0,62.0,30.17,SW,215,12.0,-999.0,94,-99.99,,,0.00,weatherlink.com 1.10,2013-04-10 16:29:00,
2013-04-10 12:44:00,64.4,62.0,30.16,SSW,206,12.0,-999.0,93,-99.99,,,0.00,weatherlink.com 1.10,2013-04-10 16:44:00,
2013-04-10 12:59:00,64.0,62.0,30.16,SSW,213,11.0,-999.0,92,-99.99,,,0.00,weatherlink.com 1.10,2013-04-10 16:59:00,
2013-04-10 13:14:00,64.0,62.0,30.16,SW,217,12.0,-999.0,93,-99.99,,,0.00,weatherlink.com 1.10,2013-04-10 17:14:00,
2013-04-10 13:29:00,64.3,62.0,30.15,SSW,205,13.0,-999.0,92,-99.99,,,0.00,weatherlink.com 1.10,2013-04-10 17:29:00,
2013-04-10 13:44:00,64.8,63.0,30.15,SW,215,12.0,-999.0,92,-99.99,,,0.00,weatherlink.com 1.10,2013-04-10 17:44:00,
2013-04-10 13:59:00,64.7,62.0,30.15,SW,216,13.0,-999.0,91,-99.99,,,0.00,weatherlink.com 1.10,2013-04-10 17:59:00,
2013-04-10 14:14:00,65.8,63.0,30.14,SW,215,14.0,-999.0,90,-99.99,,,0.00,weatherlink.com 1.10,2013-04-10 18:14:00,
2013-04-10 14:29:00,66.7,63.0,30.14,SW,221,13.0,-999.0,87,-99.99,,,0.00,weatherlink.com 1.10,2013-04-10 18:29:00,
2013-04-10 14:44:00,66.9,63.0,30.14,SW,230,14.0,-999.0,86,-99.99,,,0.00,weatherlink.com 1.10,2013-04-10 18:44:00,
2013-04-10 14:59:00,67.1,63.0,30.13,SW,223,14.0,-999.0,86,-99.99,,,0.00,weatherlink.com 1.10,2013-04-10 18:59:00,
2013-04-10 15:14:00,67.3,63.0,30.12,SW,222,14.0,-999.0,85,-99.99,,,0.00,weatherlink.com 1.10,2013-04-10 19:14:00,
2013-04-10 15:29:00,67.4,62.0,30.12,SW,216,14.0,-999.0,84,-99.99,,,0.00,weatherlink.com 1.10,2013-04-10 19:29:00,
2013-04-10 15:44:00,67.5,63.0,30.11,SW,223,14.0,-999.0,84,-99.99,,,0.00,weatherlink.com 1.10,2013-04-10 19:44:00,
2013-04-10 15:59:00,67.2,62.0,30.10,SW,227,12.0,-999.0,84,-99.99,,,0.00,weatherlink.com 1.10,2013-04-10 19:59:00,
2013-04-10 16:14:00,66.9,62.0,30.10,SW,217,14.0,-999.0,84,-99.99,,,0.00,weatherlink.com 1.10,2013-04-10 20:14:00,
2013-04-10 16:29:00,66.5,62.0,30.09,SW,214,17.0,-999.0,85,-99.99,,,0.00,weatherlink.com 1.10,2013-04-10 20:29:00,
2013-04-10 16:45:00,66.0,61.0,30.09,SW,219,19.0,-999.0,85,-99.99,,,0.00,weatherlink.com 1.10,2013-04-10 20:45:00,
2013-04-10 17:00:00,65.2,61.0,30.08,SSW,212,18.0,-999.0,86,-99.99,,,0.00,weatherlink.com 1.10,2013-04-10 21:00:00,
2013-04-10 17:15:00,64.6,61.0,30.08,SW,215,16.0,-999.0,88,-99.99,,,0.00,weatherlink.com 1.10,2013-04-10 21:15:00,
2013-04-10 17:30:00,64.4,61.0,30.09,SW,219,13.0,-999.0,89,-99.99,,,0.00,weatherlink.com 1.10,2013-04-10 21:30:00,
2013-04-10 17:45:00,64.3,61.0,30.09,SSW,211,17.0,-999.0,89,-99.99,,,0.00,weatherlink.com 1.10,2013-04-10 21:45:00,
2013-04-10 18:00:00,64.1,61.0,30.08,SSW,208,16.0,-999.0,90,-99.99,,,0.00,weatherlink.com 1.10,2013-04-10 22:00:00,
2013-04-10 18:15:00,63.6,61.0,30.08,SW,218,18.0,-999.0,90,-99.99,,,0.00,weatherlink.com 1.10,2013-04-10 22:15:00,
2013-04-10 18:30:00,63.4,61.0,30.08,SSW,212,16.0,-999.0,91,-99.99,,,0.00,weatherlink.com 1.10,2013-04-10 22:30:00,
2013-04-10 18:45:00,63.1,61.0,30.07,SW,219,19.0,-999.0,91,-99.99,,,0.00,weatherlink.com 1.10,2013-04-10 22:45:00,
2013-04-10 19:00:00,63.0,60.0,30.07,SW,215,18.0,-999.0,91,-99.99,,,0.00,weatherlink.com 1.10,2013-04-10 23:00:00,
2013-04-10 19:15:00,62.8,61.0,30.07,SW,214,16.0,-999.0,92,-99.99,,,0.00,weatherlink.com 1.10,2013-04-10 23:15:00,
2013-04-10 19:30:00,62.5,60.0,30.07,SW,214,17.0,-999.0,92,-99.99,,,0.00,weatherlink.com 1.10,2013-04-10 23:30:00,
2013-04-10 19:45:00,62.4,60.0,30.07,SSW,213,19.0,-999.0,93,-99.99,,,0.00,weatherlink.com 1.10,2013-04-10 23:45:00,
2013-04-10 20:00:00,62.3,60.0,30.07,SW,214,18.0,-999.0,93,-99.99,,,0.00,weatherlink.com 1.10,2013-04-11 00:00:00,
2013-04-10 20:15:00,62.2,60.0,30.06,SSW,213,16.0,-999.0,93,-99.99,,,0.00,weatherlink.com 1.10,2013-04-11 00:15:00,
2013-04-10 20:30:00,62.3,60.0,30.06,SW,218,18.0,-999.0,93,-99.99,,,0.00,weatherlink.com 1.10,2013-04-11 00:30:00,
2013-04-10 20:45:00,62.1,60.0,30.07,SSW,209,15.0,-999.0,93,-99.99,,,0.00,weatherlink.com 1.10,2013-04-11 00:45:00,
2013-04-10 21:00:00,61.8,60.0,30.07,SSW,209,17.0,-999.0,93,-99.99,,,0.00,weatherlink.com 1.10,2013-04-11 01:00:00,
2013-04-10 21:15:00,61.7,60.0,30.07,SW,217,14.0,-999.0,93,-99.99,,,0.00,weatherlink.com 1.10,2013-04-11 01:15:00,
2013-04-10 21:30:00,61.7,60.0,30.07,SW,221,12.0,-999.0,94,-99.99,,,0.00,weatherlink.com 1.10,2013-04-11 01:30:00,
2013-04-10 21:45:00,61.4,60.0,30.07,SW,219,10.0,-999.0,94,-99.99,,,0.00,weatherlink.com 1.10,2013-04-11 01:45:00,
2013-04-10 22:00:00,61.4,60.0,30.07,SW,221,13.0,-999.0,94,-99.99,,,0.00,weatherlink.com 1.10,2013-04-11 02:00:00,
2013-04-10 22:15:00,61.3,60.0,30.08,SW,221,9.0,-999.0,94,-99.99,,,0.00,weatherlink.com 1.10,2013-04-11 02:15:00,
2013-04-10 22:30:00,61.3,60.0,30.08,SW,236,12.0,-999.0,94,-99.99,,,0.00,weatherlink.com 1.10,2013-04-11 02:30:00,
2013-04-10 22:45:00,61.2,60.0,30.08,SW,232,11.0,-999.0,94,-99.99,,,0.00,weatherlink.com 1.10,2013-04-11 02:45:00,
2013-04-10 23:00:00,61.2,60.0,30.08,SW,232,11.0,-999.0,95,-99.99,,,0.00,weatherlink.com 1.10,2013-04-11 03:00:00,
2013-04-10 23:15:00,61.1,60.0,30.07,SW,234,9.0,-999.0,95,-99.99,,,0.00,weatherlink.com 1.10,2013-04-11 03:15:00,
2013-04-10 23:45:00,60.7,59.0,30.07,SW,234,10.0,-999.0,95,-99.99,,,0.00,weatherlink.com 1.10,2013-04-11 03:45:00,